sat.trackr.live / text

‹ back to catalog

TRISAT-2 (RUVDSSAT1)

NORAD 67298 · 2025-313BC

PAYLOAD ACTIVE UNKNOWN

§ Identity

Operator
Country
CIS
Launch date
2025-12-28
Launch site
VOSTO
Launch vehicle
Mass (kg)
RCS (m²)

External: N2YO · Heavens-Above · Gunter

§ Orbital elements

Epoch: 2026-08-19T19:46:40.289952Z

Period
88.59 min
Inclination
97.3530°
Eccentricity
0.0017357
Mean motion
16.25462905 rev/d
Perigee alt
193.3 km
Apogee alt
216.2 km
Semi-major
6,582.9 km
B*
3.5699e-3
RAAN
312.4043°
Arg perigee
280.3255°
Mean anomaly
79.6080°
Rev number
3,322

§ Raw data

TRISAT-2 (RUVDSSAT1)1 67298U 25313BC  26231.82407743  .10780010  24464-5  35699-2 0  99912 67298  97.3530 312.4043 0017357 280.3255  79.6080 16.25462905 33226

JSON: /api/v1/satellites/67298 · /tle

For live sub-satellite position, see the globe view (requires WebGL).

§ Visibility from observer

Set your observer location to see the next 7 days of passes ≥ 10°. The values pass through the URL so the page stays shareable.

No JS? Fill the form by hand. The geolocation button needs JavaScript.